N8DH Weather Reports


Display with metric or nautical units.
time (UTC)temp
F
wind
direction
speed
MPH
gust
MPH
rain 1hr
in
rain 24hr
in
rain mn
in
humidity
%
barometer
mb
20260504014532 51 179 4.0 10.0 0.00 0.00 0.00 64 1006.2
20260504013031 52 230 4.0 17.0 0.00 0.00 0.00 62 1006.2
20260504011515 52 208 8.0 15.0 0.00 0.00 0.00 60 1006.3
20260504010019 53 238 8.0 17.0 0.00 0.00 0.00 57 1006.1
20260504004511 55 230 5.0 15.0 0.00 0.00 0.00 51 1006.0
20260504003059 55 209 6.0 9.0 0.00 0.00 0.00 48 1005.5
20260504001524 56 198 4.0 13.0 0.00 0.00 0.00 47 1005.5
20260504000019 56 193 6.0 15.0 0.00 0.00 0.00 45 1005.5
20260503234522 57 223 7.0 12.0 0.00 0.00 0.00 44 1005.6
20260503233019 58 193 6.0 14.0 0.00 0.00 0.00 42 1005.7
20260503231513 58 225 7.0 14.0 0.00 0.00 0.00 43 1005.8
20260503230012 58 211 11.0 24.0 0.00 0.00 0.00 43 1005.8
20260503224510 58 219 7.0 24.0 0.00 0.00 0.00 42 1005.9
20260503223012 59 189 8.0 18.0 0.00 0.00 0.00 41 1005.9
20260503221510 59 194 11.0 18.0 0.00 0.00 0.00 42 1006.0
20260503220026 59 207 8.0 18.0 0.00 0.00 0.00 43 1006.0
20260503214524 59 207 13.0 26.0 0.00 0.00 0.00 40 1006.1
20260503213021 60 192 8.0 17.0 0.00 0.00 0.00 42 1006.1
20260503211516 60 250 8.0 27.0 0.00 0.00 0.00 41 1006.2
20260503210016 61 232 9.0 21.0 0.00 0.00 0.00 38 1006.2
20260503204516 60 191 9.0 20.0 0.00 0.00 0.00 41 1006.4
20260503203035 60 251 7.0 26.0 0.00 0.00 0.00 41 1006.5
20260503201510 60 178 9.0 17.0 0.00 0.00 0.00 42 1006.6
20260503200009 60 207 9.0 22.0 0.00 0.00 0.00 43 1006.8
20260503194526 59 190 12.0 19.0 0.00 0.00 0.00 44 1007.0
20260503193027 61 200 8.0 21.0 0.00 0.00 0.00 44 1007.2
20260503191522 59 216 8.0 24.0 0.00 0.00 0.00 44 1007.6
20260503190034 60 221 6.0 22.0 0.00 0.00 0.00 41 1007.8
20260503184524 60 179 9.0 19.0 0.00 0.00 0.00 43 1007.9
20260503183023 60 225 8.0 20.0 0.00 0.00 0.00 45 1008.1
20260503181519 60 221 6.0 20.0 0.00 0.00 0.00 44 1008.2
20260503180014 59 254 7.0 18.0 0.00 0.00 0.00 42 1008.5
20260503174516 58 190 8.0 18.0 0.00 0.00 0.00 46 1008.6
20260503173011 59 190 11.0 17.0 0.00 0.00 0.00 48 1008.8
20260503171511 59 271 6.0 15.0 0.00 0.00 0.00 49 1009.1
20260503081527 37 200 2.0 4.0 0.00 0.07 0.00 77 1010.4
20260503071513 37 192 3.0 7.0 0.00 0.09 0.00 80 1010.3
20260503054526 38 212 0.0 3.0 0.00 0.13 0.00 83 1010.7
20260503053029 38 198 1.0 4.0 0.00 0.13 0.00 83 1010.8
20260503051521 38 200 1.0 3.0 0.00 0.13 0.00 83 1010.8
20260503050016 38 181 1.0 2.0 0.00 0.13 0.00 82 1010.8
20260503044510 39 182 2.0 4.0 0.00 0.13 0.00 82 1010.8
20260503043016 39 189 1.0 3.0 0.00 0.13 0.00 81 1010.8
20260503041508 40 200 0.0 3.0 0.00 0.13 0.00 80 1010.8
20260503040009 41 182 1.0 3.0 0.00 0.14 0.13 79 1010.9
20260503034524 41 173 1.0 4.0 0.00 0.14 0.13 78 1011.0
20260503033027 41 182 2.0 4.0 0.00 0.14 0.13 78 1011.1
20260503031521 41 186 3.0 6.0 0.00 0.14 0.13 76 1011.1
20260503030024 41 190 2.0 5.0 0.00 0.23 0.13 76 1011.2
20260503024518 41 192 2.0 6.0 0.00 0.23 0.13 77 1011.2
20260503023020 41 181 2.0 5.0 0.00 0.23 0.13 77 1011.4
20260503021515 41 193 3.0 4.0 0.00 0.23 0.13 76 1011.4
20260503020013 42 202 2.0 6.0 0.00 0.23 0.13 77 1011.4